Regional Weather Roundup
Issued by NWS Newport/Morehead, NC

Current Version | Previous Version | Text Only | Print | Product List | Glossary Off
Versions: 1 2 3 4 5 6 7 8 9 10 11 12 13 14 15 16 17 18 19 20 21 22 23 24 25 26 27 28 29 30 31 32 33 34 35 36 37 38 39 40 41 42 43 44 45 46 47 48 49 50
000 ASUS42 KMHX 152113 RWRMHX WEATHER ROUNDUP FOR EASTERN NORTH CAROLINA NATIONAL WEATHER SERVICE NEWPORT/MOREHEAD CITY NC 400 PM EST FRI DEC 15 2017 NOTE: "FAIR" INDICATES FEW OR NO CLOUDS BELOW 12,000 FEET WITH NO SIGNIFICANT WEATHER AND/OR OBSTRUCTIONS TO VISIBILITY NCZ015>017-031-032-045>047-102-103-152200- NORTH COAST CITY SKY/WX TMP DP RH WIND PRES REMARKS EDENTON MOCLDY 54 39 57 NW10 29.88R ELIZABETH CITY PTCLDY 52 41 66 W20 29.87R KITTY HAWK PTCLDY 55 35 47 W10G18 29.82F MANTEO PTCLDY 56 37 49 W9 29.83F $$ NCZ045>047-081-094-103-104-152200- CENTRAL COAST CITY SKY/WX TMP DP RH WIND PRES REMARKS FRISCO CLOUDY 57 42 57 W12G22 29.86F $$ NCZ095-097-098-100-101-152200- SOUTHERN COAST CITY SKY/WX TMP DP RH WIND PRES REMARKS BEAUFORT PTCLDY 55 47 74 SW12 29.89F CEDAR ISLAND NOT AVBL JACKSONVILLE CLOUDY 58 38 47 SW8 29.90R PINEY ISLAND N/A N/A N/A N/A SW13 29.87F WILMINGTON CLOUDY 59 40 49 W8 29.91S $$ NCZ011>013-027>030-043-044-078>080-089-090>093-098-152200- COASTAL PLAIN CITY SKY/WX TMP DP RH WIND PRES REMARKS AHOSKIE CLOUDY 42 30 62 NW5 29.92R CLINTON CLOUDY 56 37 50 W9 29.92R ELIZABETHTOWN NOT AVBL GOLDSBORO CLOUDY 51 35 53 W14 29.90R GREENVILLE CLOUDY 52 34 50 NW7 29.93R HAVELOCK CLOUDY 57 40 52 SW10 29.90S KENANSVILLE CLOUDY 55 34 44 W10G22 29.90R KINSTON CLOUDY 54 36 50 W7 29.91R NEW BERN MOCLDY 56 38 50 SW6 29.89S RICHLANDS MOCLDY 57 37 47 SW6 29.90R ROCKY MOUNT MOCLDY 45 30 55 W9 29.95R WASHINGTON CLOUDY 54 36 49 W8 29.88S WHITEVILLE CLOUDY 57 38 47 SW3 29.93R $$ AMZ130-135-150-152-154-156-158-170-250-252-270-ANZ085-086-088-633-658-670-152200- MARINE OBSERVATIONS STATION/POSITION TIME TEMP WIND PRES WAVE SWELL AIR SEA DIR/SP/G HT/PER HT/PER (UTC) (F) (DEG/KT/KT) (MB) (FT/S) (FT/S) CHESAPEAKE LIGHT NOT AVBL 64 E VA BEACH 2050 58 60 240/ 23/ 29 1008.7 4/ 6 2/ 7 DUCK 2048 53 54 260/ 16/ 20 1009.7 2 E DUCK 2100 55 N/A 3/ 6 OREGON INLET 2036 51 49 200/ 12/ 13 1010.3 13E OREGON INLT 2048 64 N/A 4/ 7 2/ 7 HATTERAS CG 2048 56 55 240/ 10/ 12 1011.1 DIAMOND BUOY 2100 63 73 250/ 23/ 29 1011.4 CAPE LOOKOUT 2100 240/ 12/ 16 1012.4 BEAUFORT LAB 2048 55 50 230/ 4/ 10 1012.0 30 SE NEW RVR IN 2008 60 64 240/ 17/ 23 1012.5 30 SE NEW RVR IN 2100 65 N/A 4/ 6 27 SE WRIGHTSVLE 2008 60 64 250/ 19/ 27 1012.9 5 SE WRIGHTSVLE 2008 57 56 250/ 10/ 14 1012.8 225 S CAPE HAT 2050 72 74 270/ 16/ 17 1014.6 5/ 7 2/11 41 SE CHARLESTON 2100 64 73 250/ 23/ 31 1014.9 $$

USA.gov is the U.S. government's official web portal to all federal, state and local government web resources and services.